ATLAS 5 CENTAUR R/B, 42916

Orbit data source: Space-Track

ATLAS 5 CENTAUR R/B, 42916 is space debris in HEO originally from a launch on Fri, 18 Aug 2017 UTC launched from the Air Force Eastern Test Range (AFETR). Debris objects in space refer to the collection of defunct objects orbiting the Earth. Examples of debris include non-operational satellites, rocket bodies, and fragments generated from explosions, collisions, or faulty payload assembly.

Not visible in the next 10 days
Identifier
42916, 2017-047B
Orbit
HEO
Country
Flag of USUS
Related business
Flag of USUnited Launch Alliance/Lockheed Martin (US)
Manufacturer
ULA Decatur
Mission
Spacecraft
Bus & Motor
CENTAUR SEC, RL10C-1
Mass
~2,020 kg wet, 2,020 kg dry
Launch date (UTC)
2017-08-18 (8 years ago)
Launch vehicle
Unknown
Launch site
Air Force Eastern Test Range (AFETR)
Object type
Payload
Rocket body
Debris
Shape & HBR
Cyl + 1 Nozzle, 5.8 m
Radar Cross Section
32.260 m², Large (>1 m²)

Expand to show TLE details & history
Last TLE update: 23 hours ago

TLE from 23 hours ago
0 ATLAS 5 CENTAUR R/B
1 42916U 17047B   25318.02700683  .00000282  00000-0  00000+0 0  9997
2 42916  25.3429 232.4363 5872049 229.5007  62.4341  2.06614477 62221
Epoch: 2025-11-14T00:38Z
TLE epoch observation values (Epoch: 2025-11-14T00:38:53.390Z)
Latitude
Longitude
169.37468°
Altitude
21,244.421 km
Speed
3.681 km/s
True Right ascension
15h 29m 53s
True Declination
0° 00' 00"
Sunlit
Object was in daylight at epoch
Visualization orbit readout
Latitude
Unknown
Longitude
Unknown
Altitude
Unknown
Speed
Unknown
Apparent Right ascension
Unknown
Apparent Declination
Unknown
Sunlit
N/A
Visualization observer readout
Local Sidereal Time
19:52:53
Azimuth
Unknown
Elevation
Unknown
Doppler factor
Unknown
Orbital elements
Apogee altitude
34,955.141 km
Perigee altitude
4,371.688 km
Semi-major axis
26,041.551 km
Eccentricity
0.5872
Inclination
25.3429°
RAAN
232.4363°
Arg. of periapsis
229.5007°
True anomaly
130.59607°
Mean anomaly
62.4341°
Eccentric anomaly
95.90023°
Mean motion
0.51647 °/min
Orbital period
697.04 mins
BSTAR
0
Loading maneuver chart data...
Computing Atmospheric mass density...
Loading historical data...
Loading historical data...
Loading historical data...
Loading historical data...
Loading historical data...
Loading historical data...
Loading historical data...
Other satellites on launch #47 in the year 2017 (2017-08-18 UTC)

Documentation

Showing up to 5 results
|